Flag for Germany Weather past 2 weeks in Backnang, Baden-Württemberg, Germany

Now
43 °F

Light freezing rain. Overcast.


Feels Like: 38 °F
Forecast: 39 / 45 °F
Wind: 8 mph from West

Location: Oehringen

Current Time: Oct 22, 2014 at 10:58:00 AM

Latest Report: Oct 22, 2014 at 10:00 AM


Visibility: 9 mi

Pressure: 30.05 "Hg

Humidity: 88%

Dew point: 39 °F

Location of BacknangLocation

Historic Weather in Backnang — Graph

°F

Backnang temperature yesterday

Maximum temperature yesterday: 61 °F (at 3:00 PM)
Minimum temperature yesterday: 46 °F (at 11:00 PM)
Average temperature yesterday: 54 °F

Past Weeks' High & Low Weather Summary

 TemperatureHumidityPressure
High79 °F (Oct 9, 3:00 PM)99% (Oct 11, 8:00 AM)30.21 "Hg (Oct 11, 8:00 AM)
Low43 °F (Oct 22, 10:00 AM)38% (Oct 9, 3:00 PM)29.62 "Hg (Oct 21, 7:00 PM)
Average59 °F84%29.92 "Hg
* Reported Oct 7 10:00 AM — Oct 22 10:00 AM, Backnang, Weather by CustomWeather, © 2014

Note: Actual official high and low records may vary slightly from our data, if they occured in-between our weather recording intervals... More about our weather records

Advertising

Backnang weather history for previous 24 hours

 ConditionsComfort  
Time TempWeatherWind HumidityBarometerVisibility
10:00 AM
Oct 22
43 °FLight freezing rain. Overcast.8 mph88%30.05 "Hg9 mi
9:00 AM43 °FDrizzle. Overcast.8 mph83%30.01 "Hg11 mi
8:00 AM43 °FOvercast.7 mph88%29.99 "Hg15 mi
7:00 AM44 °FDrizzle. Overcast.8 mph80%29.96 "Hg19 mi
6:00 AM45 °FLight rain. Overcast.8 mph77%29.95 "Hg19 mi
5:00 AM45 °FOvercast.8 mph81%29.94 "Hg22 mi
4:00 AM46 °FOvercast.8 mph78%29.95 "Hg22 mi
3:00 AM46 °FOvercast.8 mph78%29.97 "Hg25 mi
2:00 AM47 °FOvercast.8 mph76%29.96 "Hg28 mi
1:00 AM46 °FOvercast.7 mph78%29.94 "Hg34 mi
12:00 AM47 °FOvercast.8 mph78%29.92 "Hg34 mi
11:00 PM
Oct 21
46 °FOvercast.8 mph86%29.87 "Hg28 mi
10:00 PM49 °FOvercast.9 mph81%29.79 "Hg34 mi
9:00 PM50 °FOvercast.9 mph85%29.74 "Hg31 mi
8:00 PM49 °FLight rain. Overcast.14 mph87%29.71 "Hg6 mi
7:00 PM56 °FDrizzle. Overcast.5 mph88%29.62 "Hg25 mi
6:00 PM60 °FOvercast.6 mph68%29.64 "Hg43 mi
5:00 PM60 °FOvercast.6 mph64%29.69 "Hg37 mi
4:00 PM60 °FOvercast.8 mph65%29.74 "Hg43 mi
3:00 PM61 °FOvercast.7 mph63%29.78 "Hg43 mi
2:00 PM60 °FOvercast.6 mph66%29.80 "Hg37 mi
1:00 PM59 °FOvercast.7 mph75%29.85 "Hg34 mi
12:00 PM58 °FOvercast.5 mph78%29.88 "Hg25 mi
11:00 AM55 °FLow clouds.2 mph90%29.91 "Hg7 mi
10:00 AM53 °FOvercast.3 mph93%29.93 "Hg7 mi
Weather by CustomWeather, © 2014

See weather overviewHow to use our weather pages